Jefferson, NC

6:08 PM EST on November 23, 2017 (GMT -0500)
Ashe County

Weather History for KGEV - January, 2001

Change the Weather History Date:

Saturday, January 13, 2001

  Actual Average Record
Temperature  
Mean Temperature 36 °F -  
Max Temperature 44 °F 39 °F 65 °F (2013)
Min Temperature 28 °F 21 °F -5 °F (1973)
Degree Days  
Heating Degree Days 29    
Moisture  
Dew Point 24 °F    
Average Humidity 68    
Maximum Humidity 93    
Minimum Humidity 38    
Precipitation  
Precipitation 0.00 in - - ()
Sea Level Pressure  
Sea Level Pressure 30.20 in    
Wind  
Wind Speed 2 mph (SSE)    
Max Wind Speed 8 mph    
Max Gust Speed -    
Visibility 10 miles    
Events      
Averages and records for this station are not official NWS values.
T = Trace of Precipitation, MM = Missing Value Source: NWS Daily Summary

Daily Weather History Graph

Daily Weather History Graph

Search for Another Location

Airport or City:

Trip Planner

Search our weather history database for the weather conditions in past years. The results will help you decide how hot, cold, wet, or windy it might be!

Date:

Astronomy

Jan. 13, 2001 Rise Set
Actual Time 7:37 AM EST 5:32 PM EST
Civil Twilight 7:08 AM EST 6:00 PM EST
Nautical Twilight 6:37 AM EST 6:32 PM EST
Astronomical Twilight 6:06 AM EST 7:03 PM EST
Moon 10:14 PM EST (1/13) 10:38 AM EST (1/13)
Length of Visible Light 10h 51m
Length of Day
9h 55m
Waning Gibbous, 79% of the Moon is Illuminated
Jan 13
Waning Gibbous
Jan 16
Last Quarter
Jan 24
New
Feb 1
First Quarter
Feb 8
Full

Hourly Weather History & Observations

Time (EST) Temp. Windchill Dew Point Humidity Pressure Visibility Wind Dir Wind Speed Gust Speed Precip Events Conditions
12:17 AM 33.8 °F 29.6 °F 26.6 °F 75% 30.16 in 10.0 mi NNW 4.6 mph - N/A   Clear
12:37 AM 32.0 °F - 26.6 °F 80% 30.15 in 10.0 mi Calm Calm - N/A   Clear
12:57 AM 32.0 °F - 26.6 °F 80% 30.15 in 10.0 mi Calm Calm - N/A   Clear
1:17 AM 32.0 °F - 26.6 °F 80% 30.16 in 10.0 mi Calm Calm - N/A   Clear
1:37 AM 32.0 °F - 26.6 °F 80% 30.16 in 10.0 mi Calm Calm - N/A   Clear
1:57 AM 33.8 °F - 24.8 °F 70% 30.16 in 10.0 mi Calm Calm - N/A   Clear
2:17 AM 32.0 °F - 23.0 °F 69% 30.16 in 10.0 mi Calm Calm - N/A   Clear
2:37 AM 32.0 °F - 26.6 °F 80% 30.16 in 10.0 mi Calm Calm - N/A   Clear
2:57 AM 32.0 °F - 24.8 °F 75% 30.16 in 10.0 mi Calm Calm - N/A   Clear
3:17 AM 30.2 °F - 26.6 °F 86% 30.16 in 10.0 mi Calm Calm - N/A   Clear
3:37 AM 28.4 °F 22.2 °F 26.6 °F 93% 30.17 in 10.0 mi SW 5.8 mph - N/A   Clear
3:57 AM 30.2 °F - 26.6 °F 86% 30.17 in 10.0 mi Calm Calm - N/A   Clear
4:17 AM 28.4 °F - 26.6 °F 93% 30.17 in 7.0 mi Calm Calm - N/A   Clear
4:37 AM 30.2 °F - 26.6 °F 86% 30.17 in 10.0 mi Calm Calm - N/A   Clear
4:57 AM 28.4 °F - 26.6 °F 93% 30.18 in 10.0 mi Calm Calm - N/A   Clear
5:17 AM 28.4 °F - 26.6 °F 93% 30.18 in 10.0 mi Calm Calm - N/A   Clear
5:37 AM 28.4 °F - 26.6 °F 93% 30.17 in 5.0 mi Calm Calm - N/A   Clear
5:57 AM 28.4 °F - 26.6 °F 93% 30.18 in 7.0 mi Calm Calm - N/A   Clear
6:17 AM 28.4 °F - 26.6 °F 93% 30.18 in 10.0 mi Calm Calm - N/A   Clear
6:37 AM 28.4 °F - 26.6 °F 93% 30.19 in 10.0 mi Calm Calm - N/A   Clear
6:57 AM 30.2 °F - 26.6 °F 86% 30.19 in 10.0 mi Calm Calm - N/A   Clear
7:17 AM 28.4 °F - 26.6 °F 93% 30.20 in 10.0 mi Calm Calm - N/A   Clear
7:37 AM 30.2 °F - 26.6 °F 86% 30.20 in 10.0 mi Calm Calm - N/A   Clear
7:57 AM 30.2 °F - 28.4 °F 93% 30.21 in 10.0 mi Calm Calm - N/A   Clear
8:17 AM 32.0 °F - 26.6 °F 80% 30.21 in 10.0 mi Calm Calm - N/A   Clear
8:37 AM 28.4 °F - 26.6 °F 93% 30.22 in 10.0 mi Calm Calm - N/A   Clear
8:57 AM 32.0 °F - 28.4 °F 87% 30.22 in 10.0 mi Calm Calm - N/A   Clear
9:17 AM 32.0 °F - 30.2 °F 93% 30.23 in 7.0 mi Calm Calm - N/A   Clear
9:37 AM 32.0 °F - 30.2 °F 93% 30.23 in 10.0 mi Calm Calm - N/A   Clear
9:57 AM 32.0 °F - 30.2 °F 93% 30.23 in 10.0 mi Calm Calm - N/A   Clear
10:17 AM 35.6 °F - 30.2 °F 81% 30.24 in 10.0 mi Calm Calm - N/A   Clear
10:37 AM 35.6 °F - 30.2 °F 81% 30.26 in 10.0 mi Calm Calm - N/A   Clear
10:57 AM 37.4 °F - 30.2 °F 75% 30.26 in 10.0 mi Calm Calm - N/A   Clear
11:17 AM 39.2 °F - 28.4 °F 65% 30.26 in 10.0 mi Calm Calm - N/A   Clear
11:37 AM 41.0 °F 39.0 °F 24.8 °F 53% 30.25 in 10.0 mi South 3.5 mph - N/A   Clear
11:57 AM 41.0 °F 38.0 °F 26.6 °F 57% 30.24 in 10.0 mi South 4.6 mph - N/A   Clear
12:17 PM 42.8 °F 40.1 °F 24.8 °F 49% 30.24 in 10.0 mi South 4.6 mph - N/A   Clear
12:37 PM 44.6 °F 40.7 °F 23.0 °F 43% 30.23 in 10.0 mi SE 6.9 mph - N/A   Clear
12:57 PM 44.6 °F 43.1 °F 23.0 °F 43% 30.22 in 10.0 mi SE 3.5 mph - N/A   Clear
1:17 PM 44.6 °F 41.4 °F 23.0 °F 43% 30.22 in 10.0 mi SE 5.8 mph - N/A   Clear
1:37 PM 44.6 °F 40.2 °F 23.0 °F 43% 30.21 in 10.0 mi SE 8.1 mph - N/A   Clear
1:57 PM 44.6 °F 40.7 °F 24.8 °F 46% 30.20 in 10.0 mi SE 6.9 mph - N/A   Clear
2:17 PM 44.6 °F 41.4 °F 24.8 °F 46% 30.20 in 10.0 mi SSE 5.8 mph - N/A   Clear
2:37 PM 44.6 °F 40.2 °F 24.8 °F 46% 30.19 in 10.0 mi SE 8.1 mph - N/A   Clear
2:57 PM 44.6 °F 42.2 °F 24.8 °F 46% 30.19 in 10.0 mi SE 4.6 mph - N/A   Clear
3:17 PM 44.6 °F 40.7 °F 23.0 °F 43% 30.20 in 10.0 mi SE 6.9 mph - N/A   Clear
3:37 PM 42.8 °F 38.6 °F 21.2 °F 42% 30.20 in 10.0 mi SE 6.9 mph - N/A   Clear
3:57 PM 42.8 °F 39.3 °F 19.4 °F 39% 30.20 in 10.0 mi SE 5.8 mph - N/A   Clear
4:17 PM 41.0 °F 37.1 °F 19.4 °F 42% 30.20 in 10.0 mi SE 5.8 mph - N/A   Clear
4:37 PM 41.0 °F 37.1 °F 17.6 °F 39% 30.20 in 10.0 mi SE 5.8 mph - N/A   Clear
4:57 PM 41.0 °F 37.1 °F 17.6 °F 39% 30.20 in 10.0 mi SSE 5.8 mph - N/A   Clear
5:17 PM 37.4 °F 33.8 °F 17.6 °F 45% 30.20 in 10.0 mi SSE 4.6 mph - N/A   Clear
5:37 PM 37.4 °F 33.8 °F 15.8 °F 41% 30.20 in 10.0 mi South 4.6 mph - N/A   Clear
5:57 PM 37.4 °F 34.9 °F 15.8 °F 41% 30.20 in 10.0 mi SSE 3.5 mph - N/A   Clear
6:17 PM 37.4 °F 34.9 °F 15.8 °F 41% 30.21 in 10.0 mi SSE 3.5 mph - N/A   Clear
6:37 PM 35.6 °F - 15.8 °F 44% 30.21 in 10.0 mi Calm Calm - N/A   Clear
6:57 PM 37.4 °F - 15.8 °F 41% 30.22 in 10.0 mi Calm Calm - N/A   Clear
7:17 PM 37.4 °F 34.9 °F 14.0 °F 38% 30.22 in 10.0 mi South 3.5 mph - N/A   Clear
7:37 PM 35.6 °F - 14.0 °F 41% 30.22 in 10.0 mi Calm Calm - N/A   Clear
7:57 PM 35.6 °F 32.8 °F 15.8 °F 44% 30.22 in 10.0 mi SSE 3.5 mph - N/A   Clear
8:17 PM 35.6 °F 32.8 °F 15.8 °F 44% 30.23 in 10.0 mi South 3.5 mph - N/A   Clear
8:37 PM 35.6 °F - 17.6 °F 48% 30.23 in 10.0 mi Calm Calm - N/A   Clear
8:57 PM 35.6 °F - 19.4 °F 52% 30.23 in 10.0 mi Calm Calm - N/A   Clear
9:17 PM 32.0 °F 28.7 °F 17.6 °F 55% 30.23 in 10.0 mi SE 3.5 mph - N/A   Scattered Clouds
9:37 PM 33.8 °F 30.8 °F 19.4 °F 56% 30.24 in 10.0 mi South 3.5 mph - N/A   Overcast
9:57 PM 33.8 °F - 19.4 °F 56% 30.24 in 10.0 mi Calm Calm - N/A   Overcast
10:17 PM 35.6 °F 32.8 °F 21.2 °F 56% 30.24 in 10.0 mi South 3.5 mph - N/A   Overcast
10:37 PM 35.6 °F - 19.4 °F 52% 30.24 in 10.0 mi Calm Calm - N/A   Overcast
10:57 PM 37.4 °F - 21.2 °F 52% 30.24 in 10.0 mi Calm Calm - N/A   Overcast
11:17 PM 35.6 °F - 19.4 °F 52% 30.23 in 10.0 mi Calm Calm - N/A   Overcast
11:37 PM 37.4 °F - 19.4 °F 48% 30.23 in 10.0 mi Calm Calm - N/A   Overcast
11:57 PM 35.6 °F 32.8 °F 17.6 °F 48% 30.22 in 10.0 mi South 3.5 mph - N/A   Overcast